DW4669 Weather Reports


Display with metric or nautical units.
time (UTC)temp
F
wind
direction
speed
MPH
gust
MPH
rain 1hr
in
rain 24hr
in
rain mn
in
humidity
%
barometer
mb
20260509005010 50 0 0.0 0.0 0.00 0.09 0.09 78 1011.3
20260509004539 50 0 0.0 0.0 0.00 0.09 0.09 78 1011.2
20260509004011 50 0 0.0 0.0 0.00 0.09 0.09 78 1011.2
20260509003514 50 0 0.0 0.0 0.00 0.09 0.09 78 1011.2
20260509003029 50 0 0.0 0.0 0.00 0.09 0.09 77 1011.1
20260509002512 50 0 0.0 0.0 0.00 0.09 0.09 77 1011.1
20260509002012 50 0 0.0 0.0 0.00 0.09 0.09 77 1011.0
20260509001531 51 0 0.0 0.0 0.00 0.09 0.09 76 1011.0
20260509001012 51 0 0.0 0.0 0.00 0.09 0.09 75 1011.0
20260509000512 52 0 0.0 0.0 0.00 0.09 0.09 74 1010.9
20260509000030 52 0 0.0 0.0 0.00 0.09 0.09 72 1010.8
20260508235513 53 0 0.0 0.0 0.00 0.09 0.09 72 1010.9
20260508235011 54 0 0.0 0.0 0.00 0.09 0.09 71 1010.9
20260508234528 54 0 0.0 0.0 0.00 0.09 0.09 68 1010.7
20260508234012 55 0 0.0 1.0 0.00 0.09 0.09 68 1010.7
20260508233512 55 0 0.0 1.0 0.00 0.09 0.09 62 1010.6
20260508233028 56 0 0.0 1.0 0.00 0.09 0.09 63 1010.6
20260508232510 56 0 0.0 2.0 0.00 0.09 0.09 61 1010.7
20260508232012 56 0 0.0 2.0 0.00 0.09 0.09 62 1010.8
20260508231531 56 0 0.0 2.0 0.00 0.09 0.09 60 1010.9
20260508231010 56 0 0.0 2.0 0.00 0.09 0.09 59 1010.8
20260508230512 56 0 0.0 3.0 0.00 0.09 0.09 59 1010.8
20260508230028 56 0 0.0 3.0 0.00 0.09 0.09 59 1010.8
20260508225515 57 0 0.0 7.0 0.00 0.09 0.09 59 1010.7
20260508225014 57 299 0.0 7.0 0.00 0.09 0.09 59 1010.7
20260508224530 57 334 0.0 4.0 0.00 0.09 0.09 58 1010.6
20260508224012 57 0 0.0 4.0 0.00 0.09 0.09 57 1010.5
20260508223512 57 0 0.0 4.0 0.00 0.09 0.09 59 1010.5
20260508223040 57 296 0.0 7.0 0.00 0.09 0.09 57 1010.5
20260508222511 58 0 1.0 7.0 0.00 0.09 0.09 56 1010.5
20260508222011 58 319 0.0 6.0 0.00 0.09 0.09 57 1010.5
20260508221530 58 0 2.0 8.0 0.00 0.09 0.09 57 1010.5
20260508221013 58 313 2.0 8.0 0.00 0.09 0.09 55 1010.4
20260508220511 59 272 0.0 5.0 0.00 0.09 0.09 56 1010.4
20260508220032 59 0 0.0 5.0 0.00 0.09 0.09 54 1010.4
20260508215511 59 296 1.0 7.0 0.00 0.09 0.09 55 1010.4
20260508215013 59 246 2.0 8.0 0.00 0.09 0.09 57 1010.3
20260508214538 58 0 1.0 9.0 0.00 0.09 0.09 55 1010.4
20260508214012 58 306 2.0 9.0 0.00 0.09 0.09 56 1010.4
20260508213510 58 316 1.0 6.0 0.00 0.09 0.09 60 1010.4
20260508213033 58 315 2.0 7.0 0.00 0.09 0.09 56 1010.4
20260508212511 58 288 1.0 10.0 0.00 0.09 0.09 56 1010.5
20260508212018 58 321 2.0 11.0 0.00 0.09 0.09 55 1010.4
20260508211532 58 265 2.0 11.0 0.00 0.09 0.09 56 1010.5
20260508211012 58 320 5.0 11.0 0.00 0.09 0.09 54 1010.5
20260508210513 59 342 2.0 7.0 0.00 0.09 0.09 59 1010.4
20260508210030 58 205 1.0 9.0 0.00 0.09 0.09 58 1010.5
20260508205513 58 0 0.0 9.0 0.00 0.09 0.09 58 1010.5
20260508205010 59 352 2.0 9.0 0.00 0.09 0.09 57 1010.6
20260508204533 59 257 2.0 8.0 0.00 0.09 0.09 56 1010.6
20260508204013 59 265 1.0 9.0 0.00 0.09 0.09 54 1010.6
20260508203510 59 252 3.0 10.0 0.00 0.09 0.09 55 1010.5
20260508203031 59 0 3.0 10.0 0.00 0.09 0.09 60 1010.6
20260508202511 58 269 2.0 9.0 0.00 0.09 0.09 58 1010.6
20260508202013 59 301 3.0 16.0 0.00 0.09 0.09 57 1010.5
20260508201529 60 307 4.0 16.0 0.00 0.09 0.09 56 1010.4
20260508201013 60 321 3.0 11.0 0.00 0.09 0.09 63 1010.4
20260508200511 59 146 1.0 10.0 0.00 0.09 0.09 64 1010.4
20260508200028 59 336 4.0 11.0 0.00 0.09 0.09 61 1010.6
20260508195510 58 272 3.0 12.0 0.00 0.09 0.09 63 1010.6
20260508195015 58 272 5.0 12.0 0.00 0.09 0.09 62 1010.7
20260508194531 58 325 3.0 10.0 0.00 0.09 0.09 65 1010.7
20260508194011 57 306 3.0 11.0 0.00 0.09 0.09 65 1010.7
20260508193512 56 323 2.0 11.0 0.00 0.09 0.09 67 1010.9
20260508193028 56 315 2.0 10.0 0.00 0.09 0.09 67 1011.0
20260508192514 56 241 1.0 10.0 0.00 0.09 0.09 71 1010.9
20260508192015 55 0 3.0 10.0 0.00 0.09 0.09 70 1010.9
20260508191531 54 300 2.0 9.0 0.00 0.09 0.09 73 1011.0
20260508191011 53 248 1.0 9.0 0.00 0.09 0.09 76 1011.0
20260508190513 52 292 3.0 9.0 0.00 0.09 0.09 74 1011.2
20260508190031 51 0 2.0 10.0 0.00 0.09 0.09 71 1011.3
20260508185512 52 0 3.0 13.0 0.00 0.09 0.09 68 1011.6
20260508185011 52 325 5.0 13.0 0.00 0.09 0.09 68 1011.6
20260508184531 53 203 6.0 16.0 0.00 0.09 0.09 65 1011.6
20260508184011 53 300 5.0 16.0 0.00 0.09 0.09 62 1011.4
20260508183517 53 268 3.0 11.0 0.00 0.09 0.09 61 1011.3
20260508183030 54 0 3.0 11.0 0.00 0.09 0.09 61 1011.1
20260508182511 54 312 3.0 15.0 0.00 0.09 0.09 60 1011.0
20260508182011 54 296 4.0 15.0 0.00 0.09 0.09 60 1011.0
20260508181530 54 300 6.0 15.0 0.00 0.09 0.09 58 1011.1
20260508181012 55 277 6.0 15.0 0.00 0.09 0.09 58 1011.0
20260508180514 55 300 5.0 12.0 0.00 0.09 0.09 60 1010.9
20260508180030 56 321 4.0 12.0 0.00 0.09 0.09 61 1010.9
20260508175510 56 319 2.0 10.0 0.00 0.09 0.09 61 1010.9
20260508175013 55 245 3.0 10.0 0.00 0.09 0.09 61 1010.8
20260508174534 55 311 4.0 10.0 0.00 0.09 0.09 60 1010.7
20260508174014 55 264 2.0 9.0 0.00 0.09 0.09 61 1010.6
20260508173511 55 304 3.0 9.0 0.00 0.09 0.09 59 1010.6
20260508173029 55 309 2.0 8.0 0.00 0.09 0.09 62 1010.6
20260508172510 55 344 1.0 8.0 0.00 0.09 0.09 61 1010.7
20260508172013 55 275 3.0 8.0 0.00 0.09 0.09 57 1010.6
20260508171539 55 0 1.0 8.0 0.00 0.09 0.09 59 1010.7
20260508171011 55 306 2.0 9.0 0.00 0.09 0.09 59 1010.7
20260508170511 55 159 1.0 14.0 0.00 0.09 0.09 62 1010.7
20260508170030 55 257 3.0 14.0 0.00 0.09 0.09 59 1010.8
20260508165511 56 173 1.0 13.0 0.00 0.09 0.09 61 1010.8
20260508165011 56 0 3.0 13.0 0.00 0.09 0.09 63 1010.8
20260508164528 55 302 3.0 13.0 0.00 0.09 0.09 66 1011.0
20260508164015 54 0 3.0 9.0 0.00 0.09 0.09 66 1011.0
20260508163511 53 279 3.0 9.0 0.00 0.09 0.09 63 1011.1
20260508163032 53 302 3.0 11.0 0.00 0.09 0.09 62 1011.1
20260508162512 53 326 4.0 11.0 0.00 0.09 0.09 63 1011.1
20260508162011 53 319 3.0 11.0 0.00 0.09 0.09 62 1011.2
20260508161530 53 250 2.0 9.0 0.00 0.09 0.09 61 1011.2
20260508161012 54 316 1.0 8.0 0.00 0.09 0.09 62 1011.0
20260508160512 54 0 1.0 8.0 0.00 0.09 0.09 62 1011.0
20260508160052 54 0 2.0 8.0 0.00 0.09 0.09 60 1011.1
20260508155511 54 315 2.0 7.0 0.00 0.09 0.09 61 1011.1
20260508155011 55 9 3.0 8.0 0.00 0.09 0.09 58 1011.2
20260508154528 55 242 1.0 8.0 0.00 0.09 0.09 59 1011.2
20260508154012 55 309 2.0 8.0 0.00 0.09 0.09 59 1011.2
20260508153511 56 20 3.0 8.0 0.00 0.09 0.09 63 1011.1
20260508153033 55 249 0.0 6.0 0.00 0.09 0.09 61 1011.2
20260508152517 54 0 2.0 6.0 0.00 0.09 0.09 60 1011.2
20260508152016 54 230 1.0 6.0 0.00 0.09 0.09 63 1011.5
20260508151530 53 0 1.0 8.0 0.00 0.09 0.09 61 1011.4
20260508151015 53 256 1.0 10.0 0.00 0.09 0.09 63 1011.6
20260508150510 53 288 3.0 10.0 0.00 0.09 0.09 61 1011.6
20260508150034 54 323 1.0 6.0 0.00 0.09 0.09 61 1011.5
20260508145511 55 341 2.0 7.0 0.00 0.09 0.09 60 1011.4
20260508145015 55 320 2.0 7.0 0.00 0.09 0.09 62 1011.4
20260508144531 55 230 1.0 7.0 0.00 0.09 0.09 63 1011.4
20260508144012 54 0 1.0 7.0 0.00 0.09 0.09 60 1011.4
20260508143513 54 267 1.0 8.0 0.00 0.09 0.09 66 1011.5
20260508143039 54 288 2.0 8.0 0.00 0.09 0.09 63 1011.5
20260508142514 54 295 2.0 7.0 0.00 0.09 0.09 62 1011.5
20260508142011 54 309 1.0 6.0 0.00 0.09 0.09 58 1011.4
20260508141537 54 310 2.0 6.0 0.00 0.09 0.09 66 1011.5
20260508141012 53 309 2.0 5.0 0.00 0.09 0.09 69 1011.8
20260508140511 53 0 1.0 8.0 0.00 0.09 0.09 72 1011.7
20260508140030 53 323 2.0 8.0 0.00 0.09 0.09 69 1011.7
20260508135514 52 291 3.0 8.0 0.00 0.09 0.09 72 1011.9
20260508135013 52 297 3.0 8.0 0.00 0.09 0.09 71 1011.9
20260508134532 52 291 1.0 9.0 0.00 0.09 0.09 75 1011.9
20260508134014 52 193 1.0 9.0 0.00 0.09 0.09 72 1011.8
20260508133512 52 317 1.0 7.0 0.00 0.09 0.09 74 1011.8
20260508133034 51 259 1.0 8.0 0.00 0.09 0.09 75 1011.7
20260508132510 51 264 2.0 8.0 0.00 0.09 0.09 73 1011.7
20260508132010 50 301 2.0 4.0 0.00 0.09 0.09 78 1011.7
20260508131529 50 0 0.0 7.0 0.00 0.09 0.09 77 1011.8
20260508131011 49 0 1.0 7.0 0.00 0.09 0.09 77 1011.7
20260508130512 49 326 2.0 7.0 0.00 0.09 0.09 77 1011.8
20260508130029 49 0 1.0 7.0 0.00 0.09 0.09 80 1011.9
20260508125512 48 287 2.0 7.0 0.00 0.09 0.09 81 1011.9
20260508125011 48 238 1.0 5.0 0.00 0.09 0.09 84 1011.9
20260508124529 47 0 1.0 8.0 0.00 0.09 0.09 85 1011.9
20260508124017 47 228 2.0 8.0 0.00 0.09 0.09 84 1012.1
20260508123512 47 319 2.0 9.0 0.00 0.09 0.09 85 1012.0
20260508123032 46 0 2.0 9.0 0.00 0.09 0.09 88 1012.1
20260508122516 46 284 1.0 5.0 0.00 0.09 0.09 89 1012.0
20260508122014 45 266 0.0 4.0 0.00 0.09 0.09 91 1011.8
20260508121552 45 0 1.0 4.0 0.00 0.09 0.09 91 1011.9
20260508121010 45 0 0.0 3.0 0.00 0.09 0.09 93 1011.9
20260508120517 44 0 0.0 3.0 0.00 0.09 0.09 93 1012.0
20260508120034 44 276 0.0 3.0 0.00 0.09 0.09 94 1012.0
20260508115514 44 0 0.0 4.0 0.00 0.09 0.09 94 1012.1
20260508115011 43 0 0.0 4.0 0.00 0.09 0.09 94 1012.1
20260508114530 43 0 0.0 3.0 0.00 0.09 0.09 95 1012.0
20260508114012 43 273 0.0 3.0 0.00 0.09 0.09 95 1012.1
20260508113512 43 273 0.0 3.0 0.00 0.09 0.09 95 1012.1
20260508113028 42 0 0.0 3.0 0.01 0.09 0.09 95 1012.1
20260508112511 42 0 0.0 3.0 0.01 0.09 0.09 95 1012.0
20260508112010 42 0 0.0 1.0 0.01 0.09 0.09 96 1012.0
20260508111528 41 0 0.0 1.0 0.01 0.09 0.09 95 1012.0
20260508111011 41 0 0.0 0.0 0.01 0.09 0.09 95 1012.0
20260508110514 41 0 0.0 0.0 0.01 0.09 0.09 95 1011.9
20260508110036 41 0 0.0 1.0 0.01 0.09 0.09 95 1011.9
20260508105516 40 0 0.0 1.0 0.01 0.09 0.09 95 1011.7
20260508105013 40 0 0.0 0.0 0.01 0.09 0.09 95 1011.5
20260508104528 40 0 0.0 3.0 0.01 0.09 0.09 95 1011.5
20260508104012 40 0 0.0 3.0 0.01 0.09 0.09 95 1011.4
20260508103510 39 0 0.0 0.0 0.01 0.09 0.09 95 1011.4
20260508103031 38 0 0.0 0.0 0.00 0.08 0.08 94 1011.4
20260508102512 38 0 0.0 0.0 0.00 0.08 0.08 94 1011.5
20260508102012 38 0 0.0 0.0 0.00 0.08 0.08 94 1011.4
20260508101534 38 0 0.0 0.0 0.00 0.08 0.08 94 1011.3
20260508101016 38 0 0.0 0.0 0.00 0.08 0.08 94 1011.4
20260508100513 39 0 0.0 0.0 0.00 0.08 0.08 94 1011.3
20260508100027 38 0 0.0 1.0 0.00 0.08 0.08 94 1011.3
20260508095514 38 0 0.0 1.0 0.00 0.08 0.08 94 1011.1
20260508095011 38 0 0.0 0.0 0.00 0.08 0.08 93 1011.1
20260508094530 38 0 0.0 0.0 0.00 0.08 0.08 93 1011.2
20260508094011 38 0 0.0 0.0 0.00 0.08 0.08 93 1011.1
20260508093512 38 0 0.0 0.0 0.00 0.08 0.08 92 1011.2
20260508093032 38 0 0.0 0.0 0.00 0.08 0.08 92 1011.1
20260508092510 38 0 0.0 0.0 0.00 0.08 0.08 92 1011.1
20260508092013 39 0 0.0 0.0 0.00 0.08 0.08 92 1011.1
20260508091530 39 0 0.0 0.0 0.00 0.08 0.08 92 1011.1
20260508091013 39 0 0.0 0.0 0.00 0.08 0.08 92 1011.0
20260508090510 40 0 0.0 0.0 0.00 0.08 0.08 92 1011.0
20260508090028 40 0 0.0 0.0 0.00 0.08 0.08 92 1011.0
20260508085514 40 0 0.0 0.0 0.00 0.09 0.08 92 1010.9
20260508085010 41 0 0.0 0.0 0.00 0.09 0.08 92 1010.9
20260508084528 41 0 0.0 0.0 0.00 0.09 0.08 92 1010.9
20260508084013 41 0 0.0 0.0 0.00 0.09 0.08 92 1010.9
20260508083515 42 0 0.0 0.0 0.00 0.09 0.08 92 1010.8
20260508083112 42 0 0.0 0.0 0.01 0.09 0.08 93 1010.8
20260508082513 42 0 0.0 0.0 0.01 0.09 0.08 93 1010.7
20260508082016 43 0 0.0 0.0 0.01 0.09 0.08 93 1010.6
20260508081530 43 0 0.0 0.0 0.01 0.09 0.08 93 1010.6
20260508081014 43 0 0.0 0.0 0.01 0.09 0.08 93 1010.7
20260508080511 43 0 0.0 1.0 0.01 0.09 0.08 93 1010.6
20260508080031 43 0 0.0 1.0 0.01 0.09 0.08 93 1010.7
20260508075511 43 0 0.0 1.0 0.01 0.11 0.08 93 1010.6
20260508075013 43 0 0.0 2.0 0.01 0.11 0.08 92 1010.5
20260508074533 43 0 0.0 2.0 0.01 0.11 0.08 93 1010.5
20260508074010 43 293 0.0 2.0 0.01 0.11 0.08 93 1010.6
20260508073513 43 0 0.0 1.0 0.01 0.11 0.08 93 1010.6
20260508073033 43 0 0.0 2.0 0.00 0.10 0.07 93 1010.8
20260508072511 43 0 0.0 2.0 0.00 0.10 0.07 93 1010.9
20260508072012 43 0 0.0 1.0 0.00 0.10 0.07 93 1010.9
20260508071532 44 0 0.0 0.0 0.00 0.10 0.07 93 1010.9
20260508071011 43 0 0.0 0.0 0.00 0.10 0.07 93 1010.9
20260508070511 43 0 0.0 0.0 0.00 0.10 0.07 92 1010.7
20260508070030 44 0 0.0 1.0 0.00 0.10 0.07 92 1010.9
20260508065513 44 0 0.0 1.0 0.01 0.11 0.07 92 1011.1
20260508065013 44 0 0.0 3.0 0.01 0.11 0.07 92 1011.1
20260508064545 44 0 0.0 3.0 0.01 0.11 0.07 92 1011.2
20260508064010 44 306 0.0 3.0 0.03 0.11 0.07 91 1011.1
20260508063513 44 0 0.0 0.0 0.05 0.11 0.07 91 1010.9
20260508063033 44 0 0.0 0.0 0.07 0.11 0.07 91 1010.9
20260508062513 44 0 0.0 0.0 0.07 0.11 0.07 90 1011.0
20260508062013 44 0 0.0 2.0 0.07 0.11 0.07 89 1011.1
20260508061532 44 0 0.0 2.0 0.07 0.11 0.07 89 1011.1
20260508061011 44 0 0.0 5.0 0.07 0.11 0.07 88 1011.3
20260508060510 44 0 0.0 5.0 0.07 0.11 0.07 87 1011.4
20260508060030 45 307 0.0 9.0 0.07 0.11 0.07 87 1011.4
20260508055514 45 0 0.0 9.0 0.06 0.11 0.06 86 1011.5
20260508055010 45 257 1.0 7.0 0.06 0.11 0.06 84 1011.5
20260508054530 45 316 2.0 7.0 0.05 0.10 0.05 85 1011.4
20260508054014 46 0 2.0 8.0 0.03 0.08 0.03 83 1011.4
20260508053513 46 341 4.0 8.0 0.01 0.06 0.01 82 1011.5
20260508053027 46 330 2.0 8.0 0.00 0.05 0.00 81 1011.1
20260508052515 46 313 1.0 3.0 0.00 0.05 0.00 82 1010.7
20260508052012 45 0 0.0 2.0 0.00 0.05 0.00 82 1010.4
20260508051531 45 0 0.0 1.0 0.00 0.05 0.00 82 1010.1
20260508051011 45 0 0.0 0.0 0.00 0.05 0.00 85 1009.7
20260508050510 45 0 0.0 0.0 0.00 0.05 0.00 85 1009.6
20260508050027 45 0 0.0 2.0 0.00 0.05 0.00 85 1009.3
20260508045509 44 0 0.0 3.0 0.00 0.05 0.00 83 1009.2
20260508045010 44 0 0.0 3.0 0.00 0.05 0.00 86 1009.2
20260508044528 44 0 0.0 1.0 0.00 0.05 0.00 86 1008.9
20260508044012 44 0 0.0 1.0 0.00 0.05 0.00 86 1009.2
20260508043512 44 0 0.0 0.0 0.00 0.05 0.00 86 1009.3
20260508043033 44 0 0.0 0.0 0.00 0.05 0.00 86 1009.4
20260508042512 44 0 0.0 0.0 0.00 0.05 0.00 86 1009.3
20260508042011 43 0 0.0 0.0 0.00 0.05 0.00 87 1009.3
20260508041529 43 0 0.0 0.0 0.00 0.05 0.00 87 1009.1
20260508041010 43 0 0.0 0.0 0.00 0.05 0.00 87 1009.0
20260508040511 43 0 0.0 0.0 0.00 0.05 0.00 87 1008.8
20260508040035 43 0 0.0 0.0 0.00 0.05 0.00 86 1008.8
20260508035516 43 0 0.0 0.0 0.00 0.05 0.05 87 1008.8
20260508035014 43 0 0.0 2.0 0.00 0.05 0.05 87 1008.7
20260508034530 43 0 0.0 2.0 0.00 0.05 0.05 86 1008.8
20260508034010 43 0 0.0 2.0 0.00 0.05 0.05 86 1009.1
20260508033510 43 0 0.0 0.0 0.00 0.05 0.05 86 1009.0
20260508033027 43 0 0.0 0.0 0.00 0.05 0.05 86 1009.0
20260508032511 42 0 0.0 0.0 0.00 0.05 0.05 86 1008.9
20260508032012 42 0 0.0 0.0 0.00 0.05 0.05 85 1009.1
20260508031530 42 0 0.0 0.0 0.00 0.05 0.05 85 1009.1
20260508031010 42 0 0.0 0.0 0.00 0.05 0.05 85 1009.1
20260508030511 42 0 0.0 0.0 0.00 0.05 0.05 85 1009.0
20260508030034 42 0 0.0 0.0 0.00 0.05 0.05 86 1009.0
20260508025512 42 0 0.0 0.0 0.00 0.05 0.05 84 1009.0
20260508025012 42 0 0.0 0.0 0.00 0.05 0.05 84 1009.0
20260508024530 42 0 0.0 0.0 0.00 0.05 0.05 83 1009.0
20260508024012 42 0 0.0 0.0 0.00 0.05 0.05 83 1009.0
20260508023511 42 0 0.0 0.0 0.00 0.05 0.05 83 1009.0
20260508023035 43 0 0.0 0.0 0.00 0.05 0.05 82 1009.0
20260508022510 43 0 0.0 0.0 0.00 0.05 0.05 82 1009.0
20260508022013 43 0 0.0 0.0 0.00 0.05 0.05 82 1009.0
20260508021531 43 0 0.0 0.0 0.00 0.05 0.05 82 1009.0
20260508021012 43 0 0.0 0.0 0.00 0.05 0.05 81 1008.8
20260508020511 43 0 0.0 0.0 0.00 0.05 0.05 81 1008.9
20260508020028 43 0 0.0 0.0 0.00 0.05 0.05 81 1008.9
20260508015515 43 0 0.0 0.0 0.00 0.05 0.05 79 1008.9
20260508015010 43 0 0.0 0.0 0.00 0.05 0.05 77 1008.8
20260508014534 43 0 0.0 0.0 0.00 0.05 0.05 77 1008.8
20260508014013 44 0 0.0 0.0 0.00 0.05 0.05 77 1008.7
20260508013511 44 0 0.0 0.0 0.00 0.05 0.05 76 1008.8
20260508013030 44 0 0.0 0.0 0.00 0.05 0.05 77 1008.7
20260508012515 45 0 0.0 0.0 0.00 0.05 0.05 77 1008.7
20260508012011 45 0 0.0 0.0 0.00 0.05 0.05 75 1008.8
20260508011536 45 0 0.0 0.0 0.00 0.05 0.05 75 1008.8
20260508011011 46 0 0.0 0.0 0.00 0.05 0.05 75 1008.9
20260508010512 46 0 0.0 0.0 0.00 0.05 0.05 73 1008.9
20260508010033 46 0 0.0 0.0 0.00 0.05 0.05 72 1008.7
20260508005520 47 0 0.0 0.0 0.00 0.06 0.05 70 1008.7